Regional Weather Roundup
Issued by NWS

Home | Current Version | Previous Version | Graphics & Text | Print | Product List | Glossary On
Versions: 1 2 3 4 5 6 7 8 9 10 11 12 13 14 15 16 17 18 19 20 21 22 23 24 25 26 27 28 29 30 31 32 33 34 35 36 37 38 39 40 41 42 43 44 45 46 47 48 49 50
000
ASUS43 KBIS 020110
RWRND

NORTH DAKOTA REGIONAL WEATHER ROUNDUP
NATIONAL WEATHER SERVICE BISMARCK ND
800 PM CDT SAT AUG 01 2015

NOTE: "FAIR" INDICATES FEW OR NO CLOUDS BELOW 12,000 FEET WITH NO
SIGNIFICANT WEATHER AND/OR OBSTRUCTIONS TO VISIBILITY.


NDZ001>003-009>011-017-020200-
NORTHWEST NORTH DAKOTA

CITY           SKY/WX    TMP DP  RH WIND       PRES   REMARKS
WILLISTON      SUNNY     94  33  11 NW26G33   29.74R
MINOT          SUNNY     85  53  33 SE6       29.69F
MINOT AFB      SUNNY     85  60  42 S6        29.68F
$$

NDZ018>021-031>035-040>046-020200-
SOUTHWEST NORTH DAKOTA

CITY           SKY/WX    TMP DP  RH WIND       PRES   REMARKS
BISMARCK       SUNNY     86  59  39 SE6       29.75F
DICKINSON      SUNNY     87  47  24 W10       29.75F
GARRISON         N/A     79  63  57 SE6       29.71F
HETTINGER ARPT SUNNY     90  46  21 S5        29.82F
$$

NDZ004>008-012>016-024-026-027-054-020200-
NORTHEAST NORTH DAKOTA

CITY           SKY/WX    TMP DP  RH WIND       PRES   REMARKS
GRAND FORKS    CLEAR     82  64  54 S6        29.70F
GRND FRKS AFB  CLEAR     81  65  57 SW6       29.71F
DEVILS LAKE    SUNNY     84  57  39 S7        29.72F
$$

NDZ022-023-025-028>030-036>039-047>053-020200-
SOUTHEAST NORTH DAKOTA

CITY           SKY/WX    TMP DP  RH WIND       PRES   REMARKS
FARGO          CLEAR     83  64  52 SE6       29.72F
JAMESTOWN      CLEAR     83  69  62 CALM      29.74F
$$




USA.gov is the U.S. government's official web portal to all federal, state and local government web resources and services.